Time,TemperatureF,DewpointF,PressureIn,WindDirection,WindDirectionDegrees,WindSpeedMPH,WindSpeedGustMPH,Humidity,HourlyPrecipIn,Conditions,Clouds,dailyrainin,SoftwareType,DateUTC
2013-03-14 00:02:00,29.0,13.0,30.47,SE,134,2.0,-999.0,51,-99.99,,,-99.99,,2013-03-14 06:02:00,
2013-03-14 00:12:00,29.0,13.0,30.47,SE,134,2.0,-999.0,51,-99.99,,,-99.99,,2013-03-14 06:12:00,
2013-03-14 00:22:00,29.0,12.0,30.47,SSW,200,2.0,-999.0,49,-99.99,,,-99.99,,2013-03-14 06:22:00,
2013-03-14 00:32:00,30.0,13.0,30.46,SW,219,1.0,-999.0,49,-99.99,,,-99.99,,2013-03-14 06:32:00,
2013-03-14 00:42:00,30.0,13.0,30.46,SW,219,1.0,-999.0,49,-99.99,,,-99.99,,2013-03-14 06:42:00,
2013-03-14 00:52:00,30.0,13.0,30.46,WNW,288,1.0,-999.0,48,-99.99,,,-99.99,,2013-03-14 06:52:00,
2013-03-14 01:02:00,29.0,13.0,30.45,WSW,244,1.0,-999.0,50,-99.99,,,-99.99,,2013-03-14 07:02:00,
2013-03-14 01:12:00,29.0,13.0,30.45,WSW,244,1.0,-999.0,50,-99.99,,,-99.99,,2013-03-14 07:12:00,
2013-03-14 01:22:00,29.0,13.0,30.45,ESE,105,1.0,-999.0,50,-99.99,,,-99.99,,2013-03-14 07:22:00,
2013-03-14 01:32:00,29.0,12.0,30.46,WSW,250,1.0,-999.0,48,-99.99,,,-99.99,,2013-03-14 07:32:00,
2013-03-14 01:42:00,29.0,12.0,30.46,WSW,250,1.0,-999.0,48,-99.99,,,-99.99,,2013-03-14 07:42:00,
2013-03-14 01:52:00,29.0,12.0,30.46,ESE,120,1.0,-999.0,48,-99.99,,,-99.99,,2013-03-14 07:52:00,
2013-03-14 02:02:00,29.0,12.0,30.46,ESE,123,1.0,-999.0,49,-99.99,,,-99.99,,2013-03-14 08:02:00,
2013-03-14 02:12:00,29.0,12.0,30.46,ESE,123,1.0,-999.0,49,-99.99,,,-99.99,,2013-03-14 08:12:00,
2013-03-14 02:22:00,28.0,12.0,30.47,SW,230,1.0,-999.0,50,-99.99,,,-99.99,,2013-03-14 08:22:00,
2013-03-14 02:32:00,28.0,11.0,30.46,SW,228,0.0,-999.0,49,-99.99,,,-99.99,,2013-03-14 08:32:00,
2013-03-14 02:41:00,28.0,11.0,30.46,SW,228,0.0,-999.0,49,-99.99,,,-99.99,,2013-03-14 08:41:00,
2013-03-14 02:52:00,28.0,12.0,30.46,ESE,111,1.0,-999.0,51,-99.99,,,-99.99,,2013-03-14 08:52:00,
2013-03-14 03:01:00,27.0,11.0,30.46,ESE,111,0.0,-999.0,51,-99.99,,,-99.99,,2013-03-14 09:01:00,
2013-03-14 03:12:00,27.0,11.0,30.46,ESE,111,0.0,-999.0,51,-99.99,,,-99.99,,2013-03-14 09:12:00,
2013-03-14 03:22:00,28.0,12.0,30.45,SSW,204,1.0,-999.0,51,-99.99,,,-99.99,,2013-03-14 09:22:00,
2013-03-14 03:32:00,29.0,13.0,30.44,West,264,0.0,-999.0,51,-99.99,,,-99.99,,2013-03-14 09:32:00,
2013-03-14 03:42:00,29.0,13.0,30.44,West,264,0.0,-999.0,51,-99.99,,,-99.99,,2013-03-14 09:42:00,
2013-03-14 03:52:00,29.0,13.0,30.44,WNW,288,1.0,-999.0,51,-99.99,,,-99.99,,2013-03-14 09:52:00,
2013-03-14 04:02:00,30.0,13.0,30.43,South,184,1.0,-999.0,49,-99.99,,,-99.99,,2013-03-14 10:02:00,
2013-03-14 04:12:00,30.0,13.0,30.43,South,184,1.0,-999.0,49,-99.99,,,-99.99,,2013-03-14 10:12:00,
2013-03-14 04:22:00,29.0,13.0,30.42,WNW,291,0.0,-999.0,50,-99.99,,,-99.99,,2013-03-14 10:22:00,
2013-03-14 04:32:00,28.0,12.0,30.42,WNW,291,0.0,-999.0,51,-99.99,,,-99.99,,2013-03-14 10:32:00,
2013-03-14 04:42:00,28.0,12.0,30.42,WNW,291,0.0,-999.0,51,-99.99,,,-99.99,,2013-03-14 10:42:00,
2013-03-14 04:52:00,27.0,12.0,30.41,West,262,0.0,-999.0,53,-99.99,,,-99.99,,2013-03-14 10:52:00,
2013-03-14 05:02:00,28.0,14.0,30.41,ENE,74,1.0,-999.0,55,-99.99,,,-99.99,,2013-03-14 11:02:00,
2013-03-14 05:12:00,28.0,14.0,30.41,ENE,74,1.0,-999.0,55,-99.99,,,-99.99,,2013-03-14 11:12:00,
2013-03-14 05:22:00,27.0,13.0,30.40,North,9,0.0,-999.0,54,-99.99,,,-99.99,,2013-03-14 11:22:00,
2013-03-14 05:32:00,27.0,14.0,30.40,NE,51,0.0,-999.0,57,-99.99,,,-99.99,,2013-03-14 11:32:00,
2013-03-14 05:42:00,27.0,14.0,30.40,NE,51,0.0,-999.0,57,-99.99,,,-99.99,,2013-03-14 11:42:00,
2013-03-14 05:52:00,26.0,13.0,30.41,NE,51,0.0,-999.0,58,-99.99,,,-99.99,,2013-03-14 11:52:00,
2013-03-14 06:02:00,26.0,14.0,30.42,NE,51,0.0,-999.0,60,-99.99,,,-99.99,,2013-03-14 12:02:00,
2013-03-14 06:12:00,26.0,14.0,30.42,NE,51,0.0,-999.0,60,-99.99,,,-99.99,,2013-03-14 12:12:00,
2013-03-14 06:22:00,26.0,14.0,30.43,NE,48,0.0,-999.0,61,-99.99,,,-99.99,,2013-03-14 12:22:00,
2013-03-14 06:33:00,25.0,13.0,30.44,West,261,0.0,-999.0,61,-99.99,,,-99.99,,2013-03-14 12:33:00,
2013-03-14 06:42:00,25.0,13.0,30.44,West,261,0.0,-999.0,61,-99.99,,,-99.99,,2013-03-14 12:42:00,
2013-03-14 06:52:00,26.0,14.0,30.45,SSW,195,1.0,-999.0,61,-99.99,,,-99.99,,2013-03-14 12:52:00,
2013-03-14 07:02:00,29.0,15.0,30.44,SSW,202,1.0,-999.0,55,-99.99,,,-99.99,,2013-03-14 13:02:00,
2013-03-14 07:12:00,29.0,15.0,30.44,SSW,202,1.0,-999.0,55,-99.99,,,-99.99,,2013-03-14 13:12:00,
2013-03-14 07:22:00,29.0,15.0,30.45,SSW,202,0.0,-999.0,56,-99.99,,,-99.99,,2013-03-14 13:22:00,
2013-03-14 07:32:00,29.0,15.0,30.46,ENE,78,1.0,-999.0,55,-99.99,,,-99.99,,2013-03-14 13:32:00,
2013-03-14 07:42:00,29.0,15.0,30.46,ENE,78,1.0,-999.0,55,-99.99,,,-99.99,,2013-03-14 13:42:00,
2013-03-14 07:52:00,29.0,15.0,30.46,ENE,78,1.0,-999.0,55,-99.99,,,-99.99,,2013-03-14 13:52:00,
2013-03-14 08:02:00,27.0,14.0,30.45,ENE,78,1.0,-999.0,57,-99.99,,,-99.99,,2013-03-14 14:02:00,
2013-03-14 08:12:00,27.0,14.0,30.45,ENE,78,1.0,-999.0,57,-99.99,,,-99.99,,2013-03-14 14:12:00,
2013-03-14 08:22:00,27.0,14.0,30.47,ENE,78,0.0,-999.0,57,-99.99,,,-99.99,,2013-03-14 14:22:00,
2013-03-14 08:32:00,28.0,14.0,30.47,SSW,199,0.0,-999.0,55,-99.99,,,-99.99,,2013-03-14 14:32:00,
2013-03-14 08:42:00,28.0,14.0,30.47,SSW,199,0.0,-999.0,55,-99.99,,,-99.99,,2013-03-14 14:42:00,
2013-03-14 08:53:00,30.0,14.0,30.47,SW,218,0.0,-999.0,50,-99.99,,,-99.99,,2013-03-14 14:53:00,
2013-03-14 09:02:00,33.0,13.0,30.47,WNW,284,0.0,-999.0,44,-99.99,,,-99.99,,2013-03-14 15:02:00,
2013-03-14 09:12:00,33.0,13.0,30.47,WNW,284,0.0,-999.0,44,-99.99,,,-99.99,,2013-03-14 15:12:00,
2013-03-14 09:22:00,34.0,14.0,30.47,West,261,1.0,-999.0,43,-99.99,,,-99.99,,2013-03-14 15:22:00,
2013-03-14 09:32:00,35.0,15.0,30.47,WNW,295,2.0,-999.0,43,-99.99,,,-99.99,,2013-03-14 15:32:00,
2013-03-14 09:42:00,35.0,15.0,30.47,WNW,295,2.0,-999.0,43,-99.99,,,-99.99,,2013-03-14 15:42:00,
2013-03-14 09:52:00,36.0,11.0,30.47,ENE,67,2.0,-999.0,35,-99.99,,,-99.99,,2013-03-14 15:52:00,
2013-03-14 10:02:00,39.0,12.0,30.47,NNE,23,1.0,-999.0,32,-99.99,,,-99.99,,2013-03-14 16:02:00,
2013-03-14 10:12:00,39.0,12.0,30.47,NNE,23,1.0,-999.0,32,-99.99,,,-99.99,,2013-03-14 16:12:00,
2013-03-14 10:22:00,39.0,16.0,30.47,SSW,196,3.0,-999.0,38,-99.99,,,-99.99,,2013-03-14 16:22:00,
2013-03-14 10:32:00,39.0,15.0,30.46,NNE,31,1.0,-999.0,37,-99.99,,,-99.99,,2013-03-14 16:32:00,
2013-03-14 10:42:00,39.0,15.0,30.46,NNE,31,1.0,-999.0,37,-99.99,,,-99.99,,2013-03-14 16:42:00,
2013-03-14 10:52:00,40.0,11.0,30.46,NNE,15,1.0,-999.0,30,-99.99,,,-99.99,,2013-03-14 16:52:00,
2013-03-14 11:02:00,41.0,10.0,30.46,SSE,157,2.0,-999.0,28,-99.99,,,-99.99,,2013-03-14 17:02:00,
2013-03-14 11:12:00,41.0,10.0,30.46,SSE,157,2.0,-999.0,28,-99.99,,,-99.99,,2013-03-14 17:12:00,
2013-03-14 11:23:00,42.0,12.0,30.45,East,96,2.0,-999.0,29,-99.99,,,-99.99,,2013-03-14 17:23:00,
2013-03-14 11:32:00,43.0,12.0,30.45,NE,51,2.0,-999.0,28,-99.99,,,-99.99,,2013-03-14 17:32:00,
2013-03-14 11:42:00,43.0,12.0,30.45,NE,51,2.0,-999.0,28,-99.99,,,-99.99,,2013-03-14 17:42:00,
2013-03-14 11:52:00,42.0,11.0,30.44,East,90,3.0,-999.0,28,-99.99,,,-99.99,,2013-03-14 17:52:00,
2013-03-14 12:02:00,43.0,11.0,30.44,West,269,2.0,-999.0,27,-99.99,,,-99.99,,2013-03-14 18:02:00,
2013-03-14 12:12:00,43.0,11.0,30.44,West,269,2.0,-999.0,27,-99.99,,,-99.99,,2013-03-14 18:12:00,
2013-03-14 12:22:00,43.0,11.0,30.45,SE,127,2.0,-999.0,27,-99.99,,,-99.99,,2013-03-14 18:22:00,
2013-03-14 12:32:00,44.0,12.0,30.44,SSW,195,2.0,-999.0,27,-99.99,,,-99.99,,2013-03-14 18:32:00,
2013-03-14 12:43:00,44.0,12.0,30.44,SSW,195,2.0,-999.0,27,-99.99,,,-99.99,,2013-03-14 18:43:00,
2013-03-14 12:52:00,44.0,10.0,30.43,SSW,204,2.0,-999.0,25,-99.99,,,-99.99,,2013-03-14 18:52:00,
2013-03-14 13:02:00,45.0,10.0,30.43,NW,304,2.0,-999.0,24,-99.99,,,-99.99,,2013-03-14 19:02:00,
2013-03-14 13:12:00,45.0,10.0,30.43,NW,304,2.0,-999.0,24,-99.99,,,-99.99,,2013-03-14 19:12:00,
2013-03-14 13:22:00,45.0,10.0,30.43,SSW,209,3.0,-999.0,24,-99.99,,,-99.99,,2013-03-14 19:22:00,
2013-03-14 13:32:00,46.0,11.0,30.42,ESE,117,3.0,-999.0,24,-99.99,,,-99.99,,2013-03-14 19:32:00,
2013-03-14 13:42:00,46.0,11.0,30.42,ESE,117,3.0,-999.0,24,-99.99,,,-99.99,,2013-03-14 19:42:00,
2013-03-14 13:52:00,47.0,11.0,30.40,ESE,113,2.0,-999.0,23,-99.99,,,-99.99,,2013-03-14 19:52:00,
2013-03-14 14:02:00,47.0,10.0,30.40,East,94,3.0,-999.0,22,-99.99,,,-99.99,,2013-03-14 20:02:00,
2013-03-14 14:11:00,47.0,10.0,30.40,East,94,3.0,-999.0,22,-99.99,,,-99.99,,2013-03-14 20:11:00,
2013-03-14 14:22:00,46.0,11.0,30.39,SSE,163,3.0,-999.0,24,-99.99,,,-99.99,,2013-03-14 20:22:00,
2013-03-14 14:32:00,47.0,12.0,30.38,South,186,2.0,-999.0,24,-99.99,,,-99.99,,2013-03-14 20:32:00,
2013-03-14 14:42:00,47.0,12.0,30.38,South,186,2.0,-999.0,24,-99.99,,,-99.99,,2013-03-14 20:42:00,
2013-03-14 14:52:00,47.0,11.0,30.37,ENE,71,3.0,-999.0,23,-99.99,,,-99.99,,2013-03-14 20:52:00,
2013-03-14 15:02:00,47.0,10.0,30.36,SSW,209,3.0,-999.0,22,-99.99,,,-99.99,,2013-03-14 21:02:00,
2013-03-14 15:12:00,47.0,10.0,30.36,SSW,209,3.0,-999.0,22,-99.99,,,-99.99,,2013-03-14 21:12:00,
2013-03-14 15:22:00,47.0,10.0,30.37,ENE,76,1.0,-999.0,22,-99.99,,,-99.99,,2013-03-14 21:22:00,
2013-03-14 15:32:00,47.0,9.0,30.36,West,265,2.0,-999.0,21,-99.99,,,-99.99,,2013-03-14 21:32:00,
2013-03-14 15:43:00,47.0,9.0,30.36,West,265,2.0,-999.0,21,-99.99,,,-99.99,,2013-03-14 21:43:00,
2013-03-14 15:53:00,47.0,11.0,30.35,ESE,117,1.0,-999.0,23,-99.99,,,-99.99,,2013-03-14 21:53:00,
2013-03-14 16:03:00,46.0,10.0,30.35,West,275,2.0,-999.0,23,-99.99,,,-99.99,,2013-03-14 22:03:00,
2013-03-14 16:12:00,46.0,10.0,30.35,West,275,2.0,-999.0,23,-99.99,,,-99.99,,2013-03-14 22:12:00,
2013-03-14 16:23:00,46.0,11.0,30.35,SSW,192,3.0,-999.0,24,-99.99,,,-99.99,,2013-03-14 22:23:00,
2013-03-14 16:33:00,46.0,11.0,30.35,South,188,1.0,-999.0,24,-99.99,,,-99.99,,2013-03-14 22:33:00,
2013-03-14 16:42:00,46.0,11.0,30.35,South,188,1.0,-999.0,24,-99.99,,,-99.99,,2013-03-14 22:42:00,
2013-03-14 16:52:00,45.0,11.0,30.33,SW,215,2.0,-999.0,25,-99.99,,,-99.99,,2013-03-14 22:52:00,
2013-03-14 17:02:00,45.0,13.0,30.34,ESE,119,2.0,-999.0,27,-99.99,,,-99.99,,2013-03-14 23:02:00,
2013-03-14 17:12:00,45.0,13.0,30.34,ESE,119,2.0,-999.0,27,-99.99,,,-99.99,,2013-03-14 23:12:00,
2013-03-14 17:22:00,45.0,11.0,30.33,ENE,68,1.0,-999.0,25,-99.99,,,-99.99,,2013-03-14 23:22:00,
2013-03-14 17:33:00,44.0,11.0,30.32,ESE,119,1.0,-999.0,26,-99.99,,,-99.99,,2013-03-14 23:33:00,
2013-03-14 17:42:00,44.0,11.0,30.32,ESE,119,1.0,-999.0,26,-99.99,,,-99.99,,2013-03-14 23:42:00,
2013-03-14 17:53:00,44.0,14.0,30.33,SE,126,1.0,-999.0,29,-99.99,,,-99.99,,2013-03-14 23:53:00,
2013-03-14 18:02:00,43.0,14.0,30.33,ESE,110,1.0,-999.0,31,-99.99,,,-99.99,,2013-03-15 00:02:00,
2013-03-14 18:12:00,42.0,16.0,30.33,East,89,1.0,-999.0,35,-99.99,,,-99.99,,2013-03-15 00:12:00,
2013-03-14 18:22:00,42.0,16.0,30.33,East,89,1.0,-999.0,35,-99.99,,,-99.99,,2013-03-15 00:22:00,
2013-03-14 18:32:00,41.0,13.0,30.33,ENE,76,1.0,-999.0,32,-99.99,,,-99.99,,2013-03-15 00:32:00,
2013-03-14 18:42:00,41.0,13.0,30.33,ENE,76,1.0,-999.0,32,-99.99,,,-99.99,,2013-03-15 00:42:00,
2013-03-14 18:52:00,41.0,13.0,30.33,SE,142,1.0,-999.0,31,-99.99,,,-99.99,,2013-03-15 00:52:00,
2013-03-14 19:02:00,40.0,11.0,30.34,ESE,111,1.0,-999.0,30,-99.99,,,-99.99,,2013-03-15 01:02:00,
2013-03-14 19:12:00,40.0,11.0,30.34,ESE,111,1.0,-999.0,30,-99.99,,,-99.99,,2013-03-15 01:12:00,
2013-03-14 19:22:00,38.0,12.0,30.34,ESE,111,0.0,-999.0,34,-99.99,,,-99.99,,2013-03-15 01:22:00,
2013-03-14 19:32:00,37.0,11.0,30.35,ESE,111,1.0,-999.0,34,-99.99,,,-99.99,,2013-03-15 01:32:00,
2013-03-14 19:42:00,37.0,11.0,30.35,ESE,111,1.0,-999.0,34,-99.99,,,-99.99,,2013-03-15 01:42:00,
2013-03-14 19:52:00,36.0,12.0,30.35,ESE,109,0.0,-999.0,36,-99.99,,,-99.99,,2013-03-15 01:52:00,
2013-03-14 20:02:00,35.0,16.0,30.35,ESE,109,0.0,-999.0,45,-99.99,,,-99.99,,2013-03-15 02:02:00,
2013-03-14 20:12:00,35.0,16.0,30.35,ESE,109,0.0,-999.0,45,-99.99,,,-99.99,,2013-03-15 02:12:00,
2013-03-14 20:22:00,34.0,14.0,30.35,ESE,109,1.0,-999.0,43,-99.99,,,-99.99,,2013-03-15 02:22:00,
2013-03-14 20:32:00,33.0,14.0,30.34,ESE,110,1.0,-999.0,45,-99.99,,,-99.99,,2013-03-15 02:32:00,
2013-03-14 20:42:00,33.0,14.0,30.34,ESE,110,1.0,-999.0,45,-99.99,,,-99.99,,2013-03-15 02:42:00,
2013-03-14 20:52:00,33.0,13.0,30.34,ESE,110,0.0,-999.0,43,-99.99,,,-99.99,,2013-03-15 02:52:00,
2013-03-14 21:02:00,32.0,13.0,30.35,ESE,110,0.0,-999.0,45,-99.99,,,-99.99,,2013-03-15 03:02:00,
2013-03-14 21:12:00,32.0,13.0,30.35,ESE,110,0.0,-999.0,45,-99.99,,,-99.99,,2013-03-15 03:12:00,
2013-03-14 21:22:00,32.0,13.0,30.35,ESE,110,0.0,-999.0,45,-99.99,,,-99.99,,2013-03-15 03:22:00,
2013-03-14 21:32:00,31.0,12.0,30.35,ESE,110,0.0,-999.0,44,-99.99,,,-99.99,,2013-03-15 03:32:00,
2013-03-14 21:43:00,31.0,12.0,30.35,ESE,110,0.0,-999.0,44,-99.99,,,-99.99,,2013-03-15 03:43:00,
2013-03-14 21:53:00,31.0,13.0,30.35,ESE,110,0.0,-999.0,46,-99.99,,,-99.99,,2013-03-15 03:53:00,
2013-03-14 22:03:00,30.0,13.0,30.35,ESE,110,0.0,-999.0,48,-99.99,,,-99.99,,2013-03-15 04:03:00,
2013-03-14 22:12:00,30.0,13.0,30.35,ESE,110,0.0,-999.0,48,-99.99,,,-99.99,,2013-03-15 04:12:00,
2013-03-14 22:23:00,30.0,12.0,30.35,ESE,110,0.0,-999.0,47,-99.99,,,-99.99,,2013-03-15 04:23:00,
2013-03-14 22:32:00,30.0,12.0,30.35,ESE,110,0.0,-999.0,47,-99.99,,,-99.99,,2013-03-15 04:32:00,
2013-03-14 22:42:00,30.0,12.0,30.35,ESE,110,0.0,-999.0,47,-99.99,,,-99.99,,2013-03-15 04:42:00,
2013-03-14 22:53:00,29.0,13.0,30.36,ESE,110,0.0,-999.0,50,-99.99,,,-99.99,,2013-03-15 04:53:00,
2013-03-14 23:02:00,29.0,13.0,30.35,ESE,110,0.0,-999.0,50,-99.99,,,-99.99,,2013-03-15 05:02:00,
2013-03-14 23:12:00,29.0,13.0,30.35,ESE,110,0.0,-999.0,50,-99.99,,,-99.99,,2013-03-15 05:12:00,
2013-03-14 23:22:00,29.0,12.0,30.35,ESE,110,0.0,-999.0,49,-99.99,,,-99.99,,2013-03-15 05:22:00,
2013-03-14 23:32:00,27.0,12.0,30.34,ESE,110,0.0,-999.0,52,-99.99,,,-99.99,,2013-03-15 05:32:00,
2013-03-14 23:42:00,27.0,12.0,30.34,ESE,110,0.0,-999.0,52,-99.99,,,-99.99,,2013-03-15 05:42:00,
2013-03-14 23:52:00,27.0,12.0,30.34,ESE,110,0.0,-999.0,53,-99.99,,,-99.99,,2013-03-15 05:52:00,